Location: San Martino di Castrozza
(46.2667°N, 11.8000°E)
Time: 02:33:40
(UTC+00:00)

Okean 1-7 - Pass Details

Date: 23 April 2021
Orbit: 590 x 618 km, 82.5° (Epoch: 15 May)

Event Time Altitude Azimuth Distance (km) Brightness Sun altitude
Exits shadow 00:58:38 49° 78° (ENE) 774 3.7 -26.4°
Drops below altitude 10° 01:02:26 10° 19° (NNE) 1,933 6.6 -26.1°
Sets 01:04:41 0° 14° (NNE) 2,838 7.6 -25.9°
